Hourly Data Report for October 21, 2013

All times are specified in Local Standard Time (LST). Add 1 hour to adjust for Daylight Saving Time where and when it is observed.

CHARLOTTETOWN A
PRINCE EDWARD ISLAND

46°17'21.000" N
63°07'09.000" W
48.50 m
8300301
71706
YYG

Download Data

Hourly Data (October 2013)
Hourly Data Report for October 21, 2013
Temp Definition
°C
Dew Point Temp Definition
°C
Rel Hum Definition
%
Wind Dir Definition
10's deg

Wind Spd Definition
km/h
Visibility Definition
km
Stn Press Definition
kPa
Hmdx Definition


Wind Chill Definition


Weather Definition


TIME
00:00 Legend Double Dagger 7.2 6.3 94 25 9 24.1 100.05     LegendNANA
01:00 Legend Double Dagger 7.6 3.7 76 27 16 24.1 100.08     LegendNANA
02:00 Legend Double Dagger 7.0 3.3 77 27 18 24.1 100.10     Mainly Clear
03:00 Legend Double Dagger 6.6 2.9 77 26 17 24.1 100.15     LegendNANA
04:00 Legend Double Dagger 5.9 2.9 81 27 13 24.1 100.21     LegendNANA
05:00 Legend Double Dagger 6.0 2.5 78 27 15 24.1 100.21     Mainly Clear
06:00 Legend Double Dagger 5.8 2.3 78 27 14 24.1 100.26     LegendNANA
07:00 Legend Double Dagger 5.6 2.4 80 25 16 24.1 100.35     LegendNANA
08:00 Legend Double Dagger 6.8 3.3 78 26 18 24.1 100.41     Mainly Clear
09:00 Legend Double Dagger 7.8 2.7 70 28 24 24.1 100.46     LegendNANA
10:00 Legend Double Dagger 7.9 2.6 69 28 22 24.1 100.52     LegendNANA
11:00 Legend Double Dagger 8.7 3.6 70 29 15 24.1 100.56     Mostly Cloudy
12:00 Legend Double Dagger 8.5 3.2 69 29 18 24.1 100.60     LegendNANA
13:00 Legend Double Dagger 8.5 3.4 70 29 19 24.1 100.63     LegendNANA
14:00 Legend Double Dagger 8.0 3.3 72 28 18 24.1 100.70     Mostly Cloudy
15:00 Legend Double Dagger 8.4 3.9 73 28 14 24.1 100.76     LegendNANA
16:00 Legend Double Dagger 8.6 4.3 74 28 9 24.1 100.81     LegendNANA
17:00 Legend Double Dagger 8.6 4.3 74 27 7 24.1 100.85     Mostly Cloudy
18:00 Legend Double Dagger 8.4 4.6 77 23 3 24.1 100.89     LegendNANA
19:00 Legend Double Dagger 8.4 5.0 79 23 7 24.1 100.94     LegendNANA
20:00 Legend Double Dagger 8.4 5.4 81 26 6 24.1 100.98     Mostly Cloudy
21:00 Legend Double Dagger 8.6 5.4 80 24 6 24.1 101.00     LegendNANA
22:00 Legend Double Dagger 8.6 5.7 82 27 9 24.1 101.02     LegendNANA
23:00 Legend Double Dagger 7.5 5.7 88 28 5 24.1 101.04     Mostly Cloudy

Notes on Data Quality.

Legend

  • E = Estimated
  • M = Missing
  • NA = Not Available
  • ‡ = Partner data that is not subject to review by the National Climate Archives
Date modified: